HP1532 SKSP-SKCG

Flight info

Callsign HP1532
Flight time 1h 4m
Altitude 37000
Route DAGAS3B DAGAS UL667 AGUJA/N0431F230 G445 KOPGI KOPGI2B
Aircraft B738/M-SDE2E3FGHIRWXY/LB1

Departure

Time 2026-05-04 02:54
Airport Gustavo Rojas Pinilla International Airport (SKSP)

Arrival

Time 2026-05-04 03:58
Airport Rafael Nuñez International Airport (SKCG)
Time Latitude Longitude Altitude Speed Heading
2026-05-04 02:37 12.58688 -81.70228 29 ft 0 kts 148°
2026-05-04 02:39 12.58707 -81.70239 29 ft 4 kts 156°
2026-05-04 02:40 12.58732 -81.70248 29 ft 4 kts 173°
2026-05-04 02:40 12.58757 -81.70246 28 ft 4 kts 215°
2026-05-04 02:40 12.58765 -81.70239 27 ft 2 kts 238°
2026-05-04 02:44 12.58763 -81.70242 27 ft 2 kts 237°
2026-05-04 02:44 12.58745 -81.70270 29 ft 7 kts 237°
2026-05-04 02:44 12.58717 -81.70316 30 ft 8 kts 238°
2026-05-04 02:44 12.58698 -81.70359 33 ft 1 kts 276°
2026-05-04 02:45 12.58700 -81.70360 33 ft 0 kts 300°
2026-05-04 02:47 12.58702 -81.70363 33 ft 2 kts 300°
2026-05-04 02:47 12.58716 -81.70388 32 ft 7 kts 300°
2026-05-04 02:48 12.58742 -81.70445 33 ft 10 kts 279°
2026-05-04 02:48 12.58714 -81.70508 34 ft 10 kts 240°
2026-05-04 02:48 12.58675 -81.70575 36 ft 11 kts 240°
2026-05-04 02:48 12.58634 -81.70646 38 ft 12 kts 239°
2026-05-04 02:49 12.58592 -81.70717 43 ft 11 kts 238°
2026-05-04 02:49 12.58550 -81.70787 46 ft 12 kts 238°
2026-05-04 02:49 12.58508 -81.70864 49 ft 13 kts 243°
2026-05-04 02:49 12.58463 -81.70943 51 ft 13 kts 239°
2026-05-04 02:50 12.58418 -81.71021 55 ft 13 kts 239°
2026-05-04 02:50 12.58368 -81.71107 52 ft 15 kts 239°
2026-05-04 02:50 12.58312 -81.71204 55 ft 16 kts 239°
2026-05-04 02:50 12.58254 -81.71305 56 ft 16 kts 239°
2026-05-04 02:51 12.58194 -81.71408 62 ft 18 kts 239°
2026-05-04 02:51 12.58130 -81.71520 63 ft 19 kts 239°
2026-05-04 02:51 12.58065 -81.71632 65 ft 18 kts 239°
2026-05-04 02:51 12.58001 -81.71741 69 ft 19 kts 239°
2026-05-04 02:52 12.57933 -81.71858 76 ft 20 kts 239°
2026-05-04 02:52 12.57857 -81.71974 92 ft 19 kts 214°
2026-05-04 02:52 12.57811 -81.72021 82 ft 1 kts 289°
2026-05-04 02:52 12.57819 -81.72026 82 ft 2 kts 322°
2026-05-04 02:53 12.57836 -81.72025 81 ft 3 kts 37°
2026-05-04 02:53 12.57848 -81.72008 81 ft 1 kts 57°
2026-05-04 02:53 12.57880 -81.71955 84 ft 35 kts 59°
2026-05-04 02:53 12.58156 -81.71475 62 ft 119 kts 59°
2026-05-04 02:54 12.58697 -81.70544 105 ft 180 kts 59°
2026-05-04 02:54 12.59348 -81.69405 872 ft 187 kts 59°
2026-05-04 02:54 12.59991 -81.68287 2063 ft 176 kts 66°
2026-05-04 02:54 12.60035 -81.67092 3118 ft 170 kts 107°
2026-05-04 02:55 12.59095 -81.64602 3964 ft 213 kts 108°
2026-05-04 02:55 12.58529 -81.63103 4172 ft 239 kts 108°
2026-05-04 02:55 12.57894 -81.61431 4579 ft 259 kts 108°
2026-05-04 02:56 12.57233 -81.59689 5333 ft 265 kts 109°
2026-05-04 02:56 12.56571 -81.57940 6157 ft 268 kts 109°
2026-05-04 02:56 12.55892 -81.56149 6946 ft 272 kts 109°
2026-05-04 02:56 12.55214 -81.54359 7716 ft 276 kts 109°
2026-05-04 02:57 12.54515 -81.52512 8461 ft 280 kts 109°
2026-05-04 02:57 12.53810 -81.50639 9181 ft 284 kts 109°
2026-05-04 02:57 12.53096 -81.48740 9900 ft 288 kts 109°
2026-05-04 02:57 12.52369 -81.46808 10453 ft 299 kts 109°
2026-05-04 02:58 12.51594 -81.44743 10615 ft 321 kts 109°
2026-05-04 02:58 12.50768 -81.42541 10792 ft 342 kts 109°
2026-05-04 02:58 12.49904 -81.40241 10930 ft 361 kts 109°
2026-05-04 02:58 12.48981 -81.37787 11089 ft 377 kts 110°
2026-05-04 02:59 12.48028 -81.35256 11493 ft 384 kts 110°
2026-05-04 02:59 12.47063 -81.32695 12035 ft 387 kts 110°
2026-05-04 02:59 12.46088 -81.30111 12583 ft 390 kts 110°
2026-05-04 02:59 12.45110 -81.27514 13122 ft 392 kts 110°
2026-05-04 03:00 12.44125 -81.24901 13645 ft 395 kts 110°
2026-05-04 03:00 12.43135 -81.22272 14131 ft 398 kts 110°
2026-05-04 03:00 12.42148 -81.19653 14606 ft 401 kts 111°
2026-05-04 03:00 12.41143 -81.16987 15082 ft 404 kts 111°
2026-05-04 03:01 12.40129 -81.14297 15580 ft 405 kts 111°
2026-05-04 03:01 12.39111 -81.11598 16061 ft 408 kts 111°
2026-05-04 03:01 12.38085 -81.08880 16490 ft 411 kts 111°
2026-05-04 03:01 12.37054 -81.06146 16908 ft 414 kts 111°
2026-05-04 03:02 12.36015 -81.03395 17341 ft 416 kts 111°
2026-05-04 03:02 12.34971 -81.00632 17782 ft 418 kts 111°
2026-05-04 03:02 12.33919 -80.97847 18168 ft 421 kts 111°
2026-05-04 03:02 12.32876 -80.95091 18565 ft 423 kts 112°
2026-05-04 03:03 12.31812 -80.92275 18904 ft 426 kts 112°
2026-05-04 03:03 12.30737 -80.89433 19212 ft 430 kts 112°
2026-05-04 03:03 12.29656 -80.86574 19548 ft 433 kts 112°
2026-05-04 03:03 12.28566 -80.83692 19888 ft 435 kts 112°
2026-05-04 03:04 12.27469 -80.80795 20211 ft 438 kts 112°
2026-05-04 03:04 12.26368 -80.77886 20517 ft 441 kts 112°
2026-05-04 03:04 12.25257 -80.74956 20799 ft 443 kts 112°
2026-05-04 03:04 12.24153 -80.72042 21072 ft 446 kts 112°
2026-05-04 03:05 12.23030 -80.69081 21361 ft 448 kts 112°
2026-05-04 03:05 12.21900 -80.66104 21627 ft 451 kts 112°
2026-05-04 03:05 12.20761 -80.63104 21881 ft 453 kts 112°
2026-05-04 03:05 12.19618 -80.60091 22133 ft 456 kts 112°
2026-05-04 03:06 12.18469 -80.57066 22375 ft 458 kts 112°
2026-05-04 03:06 12.17313 -80.54022 22613 ft 460 kts 113°
2026-05-04 03:06 12.16153 -80.50967 22833 ft 462 kts 113°
2026-05-04 03:06 12.14986 -80.47898 23050 ft 464 kts 113°
2026-05-04 03:07 12.13815 -80.44819 23247 ft 466 kts 113°
2026-05-04 03:07 12.12652 -80.41763 23457 ft 468 kts 113°
2026-05-04 03:07 12.11469 -80.38654 23657 ft 470 kts 113°
2026-05-04 03:07 12.10284 -80.35539 23846 ft 472 kts 113°
2026-05-04 03:08 12.09094 -80.32412 24040 ft 473 kts 113°
2026-05-04 03:08 12.07898 -80.29272 24220 ft 475 kts 113°
2026-05-04 03:08 12.06697 -80.26121 24423 ft 476 kts 113°
2026-05-04 03:08 12.05494 -80.22966 24616 ft 477 kts 112°
2026-05-04 03:09 12.04288 -80.19806 24771 ft 479 kts 112°
2026-05-04 03:09 12.03075 -80.16627 24945 ft 481 kts 112°
2026-05-04 03:09 12.01875 -80.13484 25133 ft 482 kts 112°
2026-05-04 03:09 12.00657 -80.10293 25310 ft 483 kts 112°
2026-05-04 03:10 11.99436 -80.07097 25496 ft 484 kts 112°
2026-05-04 03:10 11.98211 -80.03891 25665 ft 485 kts 112°
2026-05-04 03:10 11.96985 -80.00684 25830 ft 485 kts 112°
2026-05-04 03:10 11.95753 -79.97466 25970 ft 487 kts 112°
2026-05-04 03:11 11.94521 -79.94242 26122 ft 488 kts 112°
2026-05-04 03:11 11.93287 -79.91017 26282 ft 489 kts 112°
2026-05-04 03:11 11.92063 -79.87821 26432 ft 490 kts 112°
2026-05-04 03:11 11.90823 -79.84583 26573 ft 491 kts 112°
2026-05-04 03:12 11.89579 -79.81339 26716 ft 492 kts 112°
2026-05-04 03:12 11.88332 -79.78085 26859 ft 492 kts 112°
2026-05-04 03:12 11.87082 -79.74825 26991 ft 493 kts 112°
2026-05-04 03:12 11.85830 -79.71563 27162 ft 493 kts 112°
2026-05-04 03:13 11.84579 -79.68305 27378 ft 492 kts 112°
2026-05-04 03:13 11.83333 -79.65057 27611 ft 491 kts 112°
2026-05-04 03:13 11.82088 -79.61815 27826 ft 490 kts 112°
2026-05-04 03:13 11.80860 -79.58617 27988 ft 491 kts 112°
2026-05-04 03:14 11.79616 -79.55380 28166 ft 491 kts 112°
2026-05-04 03:14 11.78365 -79.52132 28395 ft 490 kts 112°
2026-05-04 03:14 11.77123 -79.48902 28642 ft 489 kts 111°
2026-05-04 03:14 11.75882 -79.45676 28864 ft 488 kts 111°
2026-05-04 03:15 11.74642 -79.42455 29063 ft 488 kts 111°
2026-05-04 03:15 11.73402 -79.39234 29300 ft 487 kts 111°
2026-05-04 03:15 11.72164 -79.36021 29549 ft 486 kts 111°
2026-05-04 03:15 11.70923 -79.32800 29772 ft 486 kts 111°
2026-05-04 03:16 11.69685 -79.29590 29963 ft 487 kts 111°
2026-05-04 03:16 11.68465 -79.26423 30183 ft 486 kts 111°
2026-05-04 03:16 11.67228 -79.23219 30442 ft 485 kts 111°
2026-05-04 03:16 11.65992 -79.20014 30707 ft 484 kts 111°
2026-05-04 03:17 11.64759 -79.16821 30948 ft 484 kts 111°
2026-05-04 03:17 11.63526 -79.13632 31150 ft 484 kts 111°
2026-05-04 03:17 11.62303 -79.10432 31338 ft 485 kts 111°
2026-05-04 03:17 11.61097 -79.07228 31576 ft 484 kts 111°
2026-05-04 03:18 11.59898 -79.04021 31855 ft 482 kts 111°
2026-05-04 03:18 11.58723 -79.00877 32123 ft 481 kts 111°
2026-05-04 03:18 11.57530 -78.97684 32345 ft 481 kts 111°
2026-05-04 03:18 11.56337 -78.94495 32542 ft 482 kts 111°
2026-05-04 03:19 11.55147 -78.91321 32768 ft 481 kts 111°
2026-05-04 03:19 11.53947 -78.88127 33044 ft 480 kts 111°
2026-05-04 03:19 11.52756 -78.84959 33350 ft 478 kts 111°
2026-05-04 03:19 11.51567 -78.81797 33612 ft 477 kts 111°
2026-05-04 03:20 11.50379 -78.78641 33835 ft 477 kts 111°
2026-05-04 03:20 11.49193 -78.75489 34059 ft 476 kts 111°
2026-05-04 03:20 11.48010 -78.72347 34324 ft 475 kts 111°
2026-05-04 03:20 11.46828 -78.69206 34572 ft 474 kts 111°
2026-05-04 03:21 11.45660 -78.66108 34792 ft 474 kts 111°
2026-05-04 03:21 11.44481 -78.62981 35037 ft 473 kts 111°
2026-05-04 03:21 11.43302 -78.59856 35277 ft 472 kts 111°
2026-05-04 03:21 11.42122 -78.56729 35496 ft 471 kts 111°
2026-05-04 03:22 11.40950 -78.53624 35714 ft 471 kts 111°
2026-05-04 03:22 11.39775 -78.50510 35897 ft 470 kts 111°
2026-05-04 03:22 11.38598 -78.47393 36074 ft 470 kts 111°
2026-05-04 03:22 11.37426 -78.44291 36268 ft 470 kts 111°
2026-05-04 03:23 11.36250 -78.41180 36450 ft 470 kts 111°
2026-05-04 03:23 11.35091 -78.38114 36614 ft 470 kts 111°
2026-05-04 03:23 11.33919 -78.35018 36852 ft 468 kts 111°
2026-05-04 03:24 11.31578 -78.28829 36941 ft 467 kts 111°
2026-05-04 03:24 11.29262 -78.22711 36927 ft 458 kts 111°
2026-05-04 03:25 11.26976 -78.16679 36944 ft 457 kts 111°
2026-05-04 03:25 11.24687 -78.10643 36941 ft 458 kts 111°
2026-05-04 03:26 11.22406 -78.04634 36939 ft 458 kts 111°
2026-05-04 03:26 11.20107 -77.98576 36937 ft 459 kts 111°
2026-05-04 03:27 11.17803 -77.92510 36938 ft 460 kts 111°
2026-05-04 03:27 11.15505 -77.86470 36934 ft 460 kts 111°
2026-05-04 03:28 11.13197 -77.80401 36936 ft 460 kts 111°
2026-05-04 03:28 11.10885 -77.74328 36914 ft 460 kts 111°
2026-05-04 03:29 11.08567 -77.68244 36930 ft 460 kts 111°
2026-05-04 03:29 11.06254 -77.62178 36930 ft 460 kts 111°
2026-05-04 03:30 11.03957 -77.56154 36919 ft 459 kts 111°
2026-05-04 03:30 11.01646 -77.50100 36930 ft 459 kts 111°
2026-05-04 03:31 10.99336 -77.44050 36919 ft 459 kts 111°
2026-05-04 03:31 10.96976 -77.38021 36928 ft 458 kts 112°
2026-05-04 03:32 10.94514 -77.32097 36929 ft 457 kts 113°
2026-05-04 03:32 10.93267 -77.29121 36828 ft 459 kts 113°
2026-05-04 03:32 10.92010 -77.26110 36285 ft 463 kts 113°
2026-05-04 03:32 10.90758 -77.23102 35699 ft 461 kts 112°
2026-05-04 03:33 10.89509 -77.20090 35024 ft 462 kts 112°
2026-05-04 03:33 10.88262 -77.17078 34347 ft 464 kts 112°
2026-05-04 03:33 10.87009 -77.14049 33653 ft 465 kts 112°
2026-05-04 03:33 10.85752 -77.11011 32940 ft 467 kts 112°
2026-05-04 03:34 10.84492 -77.07965 32204 ft 469 kts 112°
2026-05-04 03:34 10.83220 -77.04895 31446 ft 471 kts 112°
2026-05-04 03:34 10.81965 -77.01864 30662 ft 473 kts 112°
2026-05-04 03:34 10.80685 -76.98776 29849 ft 475 kts 112°
2026-05-04 03:35 10.79398 -76.95670 29000 ft 478 kts 112°
2026-05-04 03:35 10.78102 -76.92545 28101 ft 480 kts 113°
2026-05-04 03:35 10.76800 -76.89406 27168 ft 483 kts 113°
2026-05-04 03:35 10.75491 -76.86254 26267 ft 485 kts 113°
2026-05-04 03:36 10.74187 -76.83113 25603 ft 480 kts 113°
2026-05-04 03:36 10.72893 -76.79995 24912 ft 476 kts 113°
2026-05-04 03:36 10.71614 -76.76915 24237 ft 472 kts 113°
2026-05-04 03:36 10.70360 -76.73898 23567 ft 467 kts 113°
2026-05-04 03:37 10.69097 -76.70860 22894 ft 463 kts 113°
2026-05-04 03:37 10.67853 -76.67865 22223 ft 458 kts 113°
2026-05-04 03:37 10.66620 -76.64898 21559 ft 454 kts 113°
2026-05-04 03:37 10.65397 -76.61959 20893 ft 449 kts 113°
2026-05-04 03:38 10.64186 -76.59050 20229 ft 445 kts 113°
2026-05-04 03:38 10.62986 -76.56167 19565 ft 440 kts 113°
2026-05-04 03:38 10.61801 -76.53323 18911 ft 435 kts 113°
2026-05-04 03:38 10.60630 -76.50511 18255 ft 430 kts 113°
2026-05-04 03:39 10.59486 -76.47763 17613 ft 425 kts 113°
2026-05-04 03:39 10.58338 -76.45010 16967 ft 420 kts 113°
2026-05-04 03:39 10.57206 -76.42294 16328 ft 416 kts 113°
2026-05-04 03:39 10.56082 -76.39597 15695 ft 411 kts 112°
2026-05-04 03:40 10.54972 -76.36935 15060 ft 407 kts 112°
2026-05-04 03:40 10.53914 -76.34277 14432 ft 403 kts 111°
2026-05-04 03:40 10.52916 -76.31634 13802 ft 399 kts 110°
2026-05-04 03:40 10.51943 -76.29009 13201 ft 395 kts 110°
2026-05-04 03:41 10.50991 -76.26436 12601 ft 392 kts 110°
2026-05-04 03:41 10.50032 -76.23857 11997 ft 388 kts 110°
2026-05-04 03:41 10.49078 -76.21304 11405 ft 385 kts 110°
2026-05-04 03:41 10.48136 -76.18792 11141 ft 373 kts 110°
2026-05-04 03:42 10.47228 -76.16380 10961 ft 360 kts 110°
2026-05-04 03:42 10.46349 -76.14046 10805 ft 347 kts 110°
2026-05-04 03:42 10.45499 -76.11792 10653 ft 336 kts 110°
2026-05-04 03:42 10.44678 -76.09616 10517 ft 325 kts 110°
2026-05-04 03:43 10.43892 -76.07532 10386 ft 315 kts 110°
2026-05-04 03:43 10.43117 -76.05481 10254 ft 306 kts 110°
2026-05-04 03:43 10.42368 -76.03496 10128 ft 297 kts 110°
2026-05-04 03:43 10.41639 -76.01565 10005 ft 288 kts 110°
2026-05-04 03:44 10.40933 -75.99695 9865 ft 280 kts 110°
2026-05-04 03:44 10.40235 -75.97847 9573 ft 279 kts 110°
2026-05-04 03:44 10.39545 -75.96018 9302 ft 277 kts 110°
2026-05-04 03:44 10.38858 -75.94199 9020 ft 275 kts 110°
2026-05-04 03:45 10.38181 -75.92409 8735 ft 274 kts 110°
2026-05-04 03:45 10.37493 -75.90588 8451 ft 272 kts 110°
2026-05-04 03:45 10.36825 -75.88819 8170 ft 271 kts 110°
2026-05-04 03:45 10.36152 -75.87039 7887 ft 270 kts 110°
2026-05-04 03:46 10.35480 -75.85263 7604 ft 268 kts 110°
2026-05-04 03:46 10.34812 -75.83498 7321 ft 267 kts 110°
2026-05-04 03:46 10.34149 -75.81741 7040 ft 266 kts 110°
2026-05-04 03:46 10.33486 -75.79990 6758 ft 265 kts 110°
2026-05-04 03:47 10.32825 -75.78246 6482 ft 264 kts 110°
2026-05-04 03:47 10.32170 -75.76513 6204 ft 263 kts 110°
2026-05-04 03:47 10.31515 -75.74781 5923 ft 262 kts 110°
2026-05-04 03:47 10.30871 -75.73083 5653 ft 262 kts 110°
2026-05-04 03:48 10.30219 -75.71365 5381 ft 261 kts 110°
2026-05-04 03:48 10.29570 -75.69648 5099 ft 260 kts 110°
2026-05-04 03:48 10.28923 -75.67943 4888 ft 256 kts 110°
2026-05-04 03:48 10.28287 -75.66262 4632 ft 255 kts 110°
2026-05-04 03:49 10.27653 -75.64589 4372 ft 253 kts 110°
2026-05-04 03:49 10.27021 -75.62924 4130 ft 252 kts 110°
2026-05-04 03:49 10.26603 -75.61217 3843 ft 249 kts 93°
2026-05-04 03:49 10.26537 -75.59488 3618 ft 247 kts 90°
2026-05-04 03:50 10.26508 -75.57748 3388 ft 245 kts 90°
2026-05-04 03:50 10.26465 -75.56046 3278 ft 238 kts 90°
2026-05-04 03:50 10.26411 -75.54395 3156 ft 231 kts 90°
2026-05-04 03:50 10.26353 -75.52770 3068 ft 230 kts 90°
2026-05-04 03:51 10.26087 -75.51182 2952 ft 231 kts 110°
2026-05-04 03:51 10.25177 -75.49837 2921 ft 237 kts 142°
2026-05-04 03:51 10.23654 -75.49217 2925 ft 242 kts 177°
2026-05-04 03:51 10.21983 -75.49241 2930 ft 244 kts 183°
2026-05-04 03:52 10.20293 -75.49320 2916 ft 243 kts 183°
2026-05-04 03:52 10.18611 -75.49441 2905 ft 241 kts 192°
2026-05-04 03:52 10.17167 -75.50210 2916 ft 234 kts 229°
2026-05-04 03:52 10.16430 -75.51629 2915 ft 230 kts 262°
2026-05-04 03:53 10.16551 -75.53236 2924 ft 232 kts 292°
2026-05-04 03:53 10.17476 -75.54557 2923 ft 232 kts 323°
2026-05-04 03:53 10.18943 -75.55170 2912 ft 230 kts 355°
2026-05-04 03:53 10.20490 -75.54880 2909 ft 229 kts 27°
2026-05-04 03:54 10.21666 -75.53804 2920 ft 230 kts 54°
2026-05-04 03:54 10.22732 -75.52599 2692 ft 239 kts 27°
2026-05-04 03:54 10.24313 -75.52235 2469 ft 233 kts 358°
2026-05-04 03:54 10.25912 -75.52257 2207 ft 227 kts 359°
2026-05-04 03:55 10.27453 -75.52218 1965 ft 221 kts
2026-05-04 03:55 10.28923 -75.52135 1971 ft 201 kts
2026-05-04 03:55 10.30238 -75.52055 1957 ft 179 kts
2026-05-04 03:55 10.31455 -75.51957 1983 ft 186 kts
2026-05-04 03:56 10.32822 -75.51839 2011 ft 200 kts
2026-05-04 03:56 10.34192 -75.51723 1678 ft 192 kts
2026-05-04 03:56 10.35467 -75.51630 1411 ft 180 kts
2026-05-04 03:56 10.36646 -75.51584 1213 ft 162 kts
2026-05-04 03:57 10.37743 -75.51544 981 ft 154 kts
2026-05-04 03:57 10.38812 -75.51504 788 ft 155 kts
2026-05-04 03:57 10.39891 -75.51463 587 ft 155 kts
2026-05-04 03:57 10.40962 -75.51409 405 ft 153 kts
2026-05-04 03:58 10.43193 -75.51326 104 ft 164 kts
2026-05-04 03:58 10.44273 -75.51288 50 ft 137 kts
2026-05-04 03:58 10.44927 -75.51262 50 ft 42 kts
2026-05-04 03:59 10.45158 -75.51259 48 ft 18 kts 356°
2026-05-04 03:59 10.45218 -75.51278 50 ft 4 kts 25°
2026-05-04 03:59 10.45218 -75.51255 47 ft 4 kts 131°
2026-05-04 03:59 10.45190 -75.51251 47 ft 4 kts 180°
2026-05-04 04:00 10.45160 -75.51253 50 ft 4 kts 182°
2026-05-04 04:00 10.45130 -75.51254 50 ft 4 kts 182°
2026-05-04 04:00 10.45101 -75.51255 50 ft 4 kts 182°
2026-05-04 04:00 10.45072 -75.51257 50 ft 4 kts 182°
2026-05-04 04:01 10.45045 -75.51258 50 ft 4 kts 182°
2026-05-04 04:01 10.45017 -75.51258 50 ft 4 kts 180°
2026-05-04 04:01 10.44990 -75.51258 50 ft 4 kts 180°
2026-05-04 04:01 10.44963 -75.51259 50 ft 4 kts 184°
2026-05-04 04:02 10.44936 -75.51261 50 ft 4 kts 184°
2026-05-04 04:02 10.44900 -75.51263 50 ft 8 kts 184°
2026-05-04 04:02 10.44818 -75.51269 50 ft 15 kts 182°
2026-05-04 04:02 10.44706 -75.51271 50 ft 16 kts 182°
2026-05-04 04:03 10.44647 -75.51342 50 ft 12 kts 264°
2026-05-04 04:03 10.44634 -75.51416 48 ft 7 kts 270°
2026-05-04 04:03 10.44624 -75.51441 50 ft 0 kts 234°
2026-05-04 04:04 10.44620 -75.51446 50 ft 3 kts 232°
2026-05-04 04:04 10.44606 -75.51478 50 ft 6 kts 274°
2026-05-04 04:04 10.44609 -75.51524 50 ft 6 kts 272°
2026-05-04 04:04 10.44609 -75.51542 50 ft 0 kts 273°
2026-05-04 04:05 10.44610 -75.51545 50 ft 0 kts 273°